COSMOS 1275 DEB, 42197

Orbit data source: Space-Track

COSMOS 1275 DEB, 42197 is space debris in LEO originally from a launch on Thu, 04 Jun 1981 UTC launched from the Plesetsk Missile And Space Complex (PKMTR). Debris objects in space refer to the collection of defunct objects orbiting the Earth. Examples of debris include non-operational satellites, rocket bodies, and fragments generated from explosions, collisions, or faulty payload assembly.

Loading next visibility...
Identifier
42197, 1981-053TM
Orbit
LEO
Country
Flag of CISCIS
Related business
Manufacturer
Unknown
Mission
Spacecraft
Bus & Motor
Unknown
Mass
Unknown
Launch date (UTC)
1981-06-04 (45 years ago)
Launch vehicle
Unknown
Launch site
Plesetsk Missile And Space Complex (PKMTR)
Object type
Payload
Rocket body
Debris
Shape & HBR
Unknown shape, 0.1 m
Radar Cross Section
Small (<0.1 m²)

Expand to show TLE details & history
Last TLE update: 4 days ago

TLE from 4 days ago
0 COSMOS 1275 DEB
1 42197U 81053TM  26031.98951060  .00001291  00000-0  13643-2 0  9992
2 42197  82.8472 120.2633 0114491 265.4594  93.3474 13.71093771608607
Epoch: 2026-01-31T23:44Z
TLE epoch observation values (Epoch: 2026-01-31T23:44:53.715Z)
Latitude
-0.00007°
Longitude
-7.16611°
Altitude
1,004.431 km
Speed
7.347 km/s
True Right ascension
08h 01m 03s
True Declination
0° 00' 00"
Sunlit
Object was in full shadow at epoch
Visualization orbit readout
Latitude
Unknown
Longitude
Unknown
Altitude
Unknown
Speed
Unknown
Apparent Right ascension
Unknown
Apparent Declination
Unknown
Sunlit
N/A
Visualization observer readout
Local Sidereal Time
22:12:31
Azimuth
Unknown
Elevation
Unknown
Doppler factor
Unknown
Orbital elements
Apogee altitude
1,077.195 km
Perigee altitude
908.414 km
Semi-major axis
7,370.941 km
Eccentricity
0.01145
Inclination
82.8472°
RAAN
120.2633°
Arg. of periapsis
265.4594°
True anomaly
94.65592°
Mean anomaly
93.3474°
Eccentric anomaly
94.00179°
Mean motion
3.42972 °/min
Orbital period
104.96 mins
BSTAR
0.0013643
Loading maneuver chart data...
Computing Atmospheric mass density...

Documentation

Showing up to 5 results
|